Location: Rottenacker
(48.2350°N, 9.6886°E)
Time: 07:52:45
(UTC+02:00)

ISS - Visible Passes

Search period start: 09 May 2021 00:00
Search period end: 19 May 2021 00:00
Orbit: 418 x 421 km, 51.6° (Epoch: 08 May)

Date Brightness Start Highest point End Pass type
(mag) Time Alt. Az. Time Alt. Az. Time Alt. Az.
09 May -1.9 02:03:26 26° ENE 02:03:26 26° ENE 02:05:03 10° ENE visible
09 May -2.7 03:36:22 17° WNW 03:38:41 45° N 03:41:57 10° ENE visible
10 May -0.8 01:17:27 11° ENE 01:17:27 11° ENE 01:17:35 10° ENE visible
10 May -2.9 02:50:22 39° NW 02:51:09 49° N 02:54:28 10° ENE visible
10 May -2.9 04:24:58 10° WNW 04:28:19 53° NNE 04:31:38 10° E visible
11 May -2.7 02:04:21 46° NE 02:04:21 46° NE 02:07:01 10° ENE visible
11 May -2.7 03:37:31 10° WNW 03:40:48 47° N 03:44:05 10° E visible
12 May -1.6 01:18:16 21° ENE 01:18:16 21° ENE 01:19:34 10° ENE visible
12 May -2.6 02:51:11 19° WNW 02:53:17 44° N 02:56:33 10° ENE visible
12 May -3.7 04:26:56 10° WNW 04:30:20 82° NNE 04:33:43 10° ESE visible
13 May -0.8 00:32:07 10° ENE 00:32:07 10° ENE 00:32:07 10° ENE visible
13 May -2.7 02:05:02 38° NW 02:05:45 45° N 02:09:01 10° ENE visible
13 May -3.3 03:39:30 10° WNW 03:42:52 64° NNE 03:46:14 10° E visible
14 May -2.7 01:18:37 46° NNE 01:18:37 46° NNE 01:21:32 10° ENE visible
14 May -3.0 02:52:02 10° WNW 02:55:22 53° N 02:58:41 10° E visible
14 May -3.6 04:28:55 10° WNW 04:32:13 50° SSW 04:35:30 10° SE visible
14 May -3.4 22:50:45 10° SW 22:53:56 41° SSE 22:55:39 22° E visible
15 May -3.2 00:27:23 10° W 00:30:43 57° NNW 00:34:03 10° ENE visible
15 May -2.7 02:04:35 10° WNW 02:07:51 47° N 02:11:09 10° E visible
15 May -3.9 03:41:26 10° WNW 03:44:49 73° SSW 03:48:11 10° ESE visible
15 May -2.8 22:03:42 10° SSW 22:06:37 27° SE 22:09:32 10° E visible
15 May -3.6 23:39:52 10° WSW 23:43:14 72° NNW 23:46:37 10° ENE visible
16 May -2.6 01:17:04 10° WNW 01:20:19 44° N 01:23:36 10° ENE visible
16 May -3.8 02:54:00 10° WNW 02:57:23 83° NNE 03:00:46 10° ESE visible
16 May -2.5 04:31:12 10° W 04:33:55 22° SW 04:36:37 10° SSE visible
16 May -3.9 22:52:24 10° WSW 22:55:46 86° SSE 22:59:09 10° ENE visible
17 May -2.7 00:29:32 10° WNW 00:32:47 45° N 00:36:04 10° ENE visible
17 May -3.4 02:06:33 10° WNW 02:09:55 64° NNE 02:13:16 10° E visible
17 May -3.1 03:43:31 10° W 03:46:36 33° SW 03:49:40 10° SSE visible
17 May -3.8 22:05:01 10° SW 22:08:21 61° SSE 22:11:42 10° ENE visible
17 May -2.8 23:41:58 10° W 23:45:15 49° N 23:48:34 10° ENE visible
18 May -3.0 01:19:05 10° WNW 01:22:25 53° NNE 01:22:56 47° NE visible
18 May -3.1 22:54:25 10° W 22:57:44 57° NNW 23:01:05 10° ENE visible
